[[{"header":{"parameterUnit":"m.s-1","parameterCategory":1,"la1":30.2991,"la2":30.254,"lo1":-89.0895,"lo2":-89.0444,"dy":0.0017,"dx":0.0017,"nx":28,"ny":28,"refTime":"2025-12-16T03:00:00:Z","depth":0,"parameterNumber":2,"parameterNumberName":"U-component_of_WINDS"},"data":[0,0,0,0,0,0,0,0,0,0,0,0,0,0,0,0,0,0,0,0,0,0,0,0,0,0,0,0,0,0,0,0,0,0,0,0,0,0,0,0,0,0,0,0,0,0,0,0,0,0,0,0,0,0,0,0,0,0,-5.1145,-5.1147,0,-5.1315,-5.1317,-5.1319,-5.1217,-5.1212,-5.1207,-5.1202,-5.1381,-5.139,-5.1399,0,0,0,0,0,0,0,0,0,0,0,0,0,-5.0736,-5.0744,-5.1145,-5.1147,-5.1149,-5.1315,-5.1317,-5.1319,-5.1217,-5.1211,-5.1205,-5.12,-5.1378,-5.1389,-5.14,0,0,0,0,0,0,0,0,0,0,0,0,0,-5.0911,-5.0747,-5.1145,-5.1118,-5.1117,-5.1314,-5.1317,-5.132,-5.1219,-5.1211,-5.1204,-5.1197,-5.1374,-5.1387,-5.1401,-5.1635,0,0,-5.1444,-5.145,0,0,0,0,0,0,0,0,-5.0901,-5.0926,-5.112,-5.112,-5.112,-5.1237,-5.1238,-5.1426,-5.1221,-5.118,-5.1202,-5.1193,-5.1339,-5.1355,-5.1404,-5.1643,-5.1651,-5.1445,-5.1454,-5.146,-5.1464,0,0,0,0,0,0,0,-5.0889,-5.0918,-5.1212,-5.1123,-5.1123,-5.1099,-5.1116,-5.1273,-5.1299,-5.1183,-5.1176,-5.1198,-5.1338,-5.139,-5.1407,-5.1654,-5.1445,-5.1457,-5.1466,-5.1471,-5.2096,-5.2104,0,0,0,0,0,0,-5.0878,-5.0909,-5.1207,-5.1217,-5.099,-5.1113,-5.1131,-5.1207,-5.1297,-5.1304,-5.1204,-5.1192,-5.137,-5.1391,-5.1413,-5.1694,-5.146,-5.1473,-5.1481,-5.2088,-5.2098,-5.2107,0,0,0,0,0,0,-5.087,-5.0906,-5.12,-5.1061,-5.1097,-5.1127,-5.1213,-5.1214,-5.1267,-5.1312,-5.1317,-5.1253,-5.1365,-5.1393,-5.1581,-5.1699,-5.1479,-5.1492,-5.2078,-5.2091,-5.2102,-5.2257,0,0,0,0,0,0,-5.0859,-5.0903,-5.0992,-5.1064,-5.1105,-5.1364,-5.122,-5.1223,-5.1291,-5.1277,-5.136,-5.1366,-5.1362,-5.156,-5.1595,-5.1714,-5.1503,-5.2068,-5.2084,-5.2098,-5.2242,-5.2273,-5.23,0,0,0,0,0,-5.0844,-5.1029,-5.0997,-5.1033,-5.1215,-5.1371,-5.1394,-5.1384,-5.13,-5.139,-5.142,-5.1364,-5.168,-5.158,-5.1618,-5.1744,-5.206,-5.2079,-5.2097,-5.2229,-5.2267,-5.2299,0,0,0,0,0,0,-5.0971,-5.1038,-5.1003,-5.1216,-5.1288,-5.1353,-5.1466,-5.1425,-5.1524,-5.1507,-5.1491,-5.1511,-5.1707,-5.1744,-5.1632,-5.1975,-5.1857,-5.1884,-5.1944,-5.1981,-5.201,-5.1998,-5.1514,0,0,0,0,0,-5.1023,-5.1143,-5.1195,-5.1379,-5.1417,-5.1436,-5.1503,-5.1489,-5.1564,-5.1594,-5.1637,-5.1714,-5.183,-5.1908,-5.2017,-5.2246,-5.2264,-5.2351,-5.238,-5.2404,-5.2428,-5.2553,-5.2593,-5.2167,-5.2167,-5.2167,0,0,-5.1133,-5.1185,-5.1261,-5.1405,-5.146,-5.1586,-5.1462,-5.16,-5.1694,-5.1616,-5.1795,-5.183,-5.1914,-5.2124,-5.2218,-5.216,-5.2549,-5.2428,-5.2446,-5.2457,-5.2577,-5.2617,-5.2653,-5.218,-5.2177,-5.2175,0,0,-5.1398,-5.1448,-5.1607,-5.1664,-5.1748,-5.1759,-5.1798,-5.187,-5.1889,-5.2069,-5.2013,-5.2125,-5.2326,-5.2389,-5.2447,-5.2737,-5.269,-5.2774,-5.2927,-5.305,-5.3083,-5.3113,-5.3218,-5.3256,-5.2797,-5.2797,-5.2798,0,-5.1524,-5.171,-5.1694,-5.1837,-5.1903,-5.1837,-5.1998,-5.2055,-5.2171,-5.2219,-5.2152,-5.2404,-5.2456,-5.268,-5.2751,-5.28,-5.2844,-5.2764,-5.3079,-5.3109,-5.3137,-5.3237,-5.3276,-5.2807,-5.2806,-5.2805,-5.2804,0,-5.1863,-5.1993,-5.2111,-5.2224,-5.2303,-5.2455,-5.2463,-5.2545,-5.2525,-5.2544,-5.2729,-5.2789,-5.291,-5.2962,-5.2944,-5.3185,-5.3147,-5.308,-5.2961,-5.3187,-5.3281,-5.3319,-5.2821,-5.2817,-5.2815,-5.2812,0,0,-5.2212,-5.2314,-5.2358,-5.2409,-5.2497,-5.2598,-5.2748,-5.2865,-5.2937,-5.302,-5.3146,-5.3318,-5.3257,-5.3324,-5.3312,-5.3419,-5.3647,-5.334,-5.3341,-5.3396,-5.3918,-5.3969,-5.4013,-5.3616,-5.3623,-5.3629,-5.3912,0,-5.2483,-5.2742,-5.2733,-5.2976,-5.3097,-5.3036,-5.3167,-5.3236,-5.3259,-5.3366,-5.339,-5.3513,-5.3423,-5.3463,-5.3566,-5.3597,-5.3752,-5.3577,-5.3735,-5.3741,-5.3717,-5.4062,-5.4115,-5.4379,-5.3948,-5.3954,-5.3959,0,-5.2834,-5.2927,-5.3183,-5.3254,-5.3304,-5.3422,-5.353,-5.3632,-5.371,-5.3719,-5.3794,-5.3765,-5.3918,-5.3795,-5.4007,-5.3888,-5.3952,-5.3977,-5.3987,-5.4003,-5.3864,-5.4088,-5.4463,-5.4503,-5.4016,-5.4012,-5.4007,0,-5.3064,-5.3255,-5.3432,-5.3477,-5.3565,-5.3649,-5.369,-5.376,-5.3832,-5.3927,-5.3974,-5.4086,-5.4148,-5.4236,-5.4239,-5.4148,-5.4454,-5.433,-5.4467,-5.4467,-5.4535,-5.4531,-5.4927,-5.4575,-5.4574,-5.4573,-5.4573,0,-5.3369,-5.3528,-5.3537,-5.3646,-5.3823,-5.3811,-5.3987,-5.4019,-5.4083,-5.4199,-5.4154,-5.4264,-5.426,-5.4373,-5.4376,-5.4553,-5.4581,-5.4593,-5.4592,-5.4598,-5.4597,-5.464,-5.4623,-5.4584,-5.4582,-5.458,-5.4578,0,-5.3656,-5.3669,-5.3859,-5.3926,-5.3947,-5.4074,-5.4133,-5.4238,-5.4255,-5.4403,-5.4437,-5.4466,-5.4596,-5.4608,-5.4759,-5.4761,-5.4975,-5.4954,-5.4948,-5.4945,-5.5082,-5.5069,-5.5521,-5.558,-5.5189,-5.5192,-5.5195,0,-5.385,-5.3971,-5.4051,-5.4125,-5.417,-5.429,-5.4363,-5.4357,-5.4435,-5.4534,-5.4628,-5.4753,-5.4853,-5.5064,-5.51,-5.5216,-5.5198,-5.5348,-5.5215,-5.5217,-5.5201,-5.5195,-5.5207,-5.5374,-5.5378,-5.5382,-5.5385,0,-5.4193,-5.4194,-5.43,-5.441,-5.4498,-5.4584,-5.4665,-5.4728,-5.4732,-5.4823,-5.4954,-5.5032,-5.5186,-5.5312,-5.5426,-5.5469,-5.543,-5.5426,-5.5464,-5.5472,-5.5464,-5.5471,-5.502,-5.5416,-5.5413,-5.5411,-5.5409,-5.5408,-5.4441,-5.4546,-5.4619,-5.474,-5.4799,-5.4876,-5.4978,-5.5009,-5.5119,-5.5243,-5.5233,-5.538,-5.5456,-5.5605,-5.5657,-5.5772,-5.5722,-5.5777,-5.5791,-5.5805,-5.582,-5.5445,-5.5793,-5.5792,-5.5791,-5.5791,-5.579,0,-5.4783,-5.4827,-5.4938,-5.5052,-5.5147,-5.5099,-5.5187,-5.527,-5.5399,-5.5473,-5.5573,-5.5726,-5.5848,-5.5893,-5.6013,-5.6097,-5.6082,-5.6129,-5.6123,-5.6134,-5.5857,-5.5813,-5.6139,-5.6139,-5.6139,-5.6139,-5.6139,-5.6139,-5.4972,-5.5147,-5.5157,-5.5362,-5.5405,-5.5548,-5.5602,-5.5673,-5.5732,-5.5905,-5.6006,-5.6034,-5.6098,-5.6222,-5.6332,-5.6343,-5.6389,-5.6445,-5.6448,-5.6189,-5.6153,-5.612,-5.6078,-5.6455,-5.6455,-5.6715,-5.6717,-5.6719]},{"header":{"parameterUnit":"m.s-1","parameterCategory":1,"la1":30.2991,"la2":30.254,"lo1":-89.0895,"lo2":-89.0444,"dy":0.0017,"dx":0.0017,"nx":28,"ny":28,"refTime":"2025-12-16T03:00:00:Z","depth":0,"parameterNumber":3,"parameterNumberName":"V-component_of_WINDS"},"data":[0,0,0,0,0,0,0,0,0,0,0,0,0,0,0,0,0,0,0,0,0,0,0,0,0,0,0,0,0,0,0,0,0,0,0,0,0,0,0,0,0,0,0,0,0,0,0,0,0,0,0,0,0,0,0,0,0,0,-1.751,-1.7509,0,-1.7406,-1.7404,-1.7403,-1.7324,-1.7324,-1.7323,-1.7322,-1.7213,-1.7211,-1.7209,0,0,0,0,0,0,0,0,0,0,0,0,0,-1.7639,-1.7637,-1.7511,-1.7509,-1.7508,-1.7406,-1.7404,-1.7403,-1.7324,-1.7323,-1.7323,-1.7322,-1.7214,-1.7211,-1.7209,0,0,0,0,0,0,0,0,0,0,0,0,0,-1.7564,-1.7636,-1.7511,-1.7456,-1.7451,-1.7406,-1.7404,-1.7403,-1.7325,-1.7323,-1.7322,-1.7321,-1.7215,-1.7211,-1.7208,-1.7209,0,0,-1.7198,-1.7196,0,0,0,0,0,0,0,0,-1.7568,-1.7559,-1.7466,-1.746,-1.7453,-1.7377,-1.741,-1.7338,-1.7325,-1.7372,-1.7322,-1.7321,-1.7268,-1.7261,-1.7243,-1.7204,-1.7199,-1.7198,-1.7196,-1.7194,-1.7193,0,0,0,0,0,0,0,-1.7573,-1.7563,-1.7469,-1.7464,-1.7457,-1.7436,-1.7424,-1.7396,-1.7328,-1.7368,-1.7362,-1.7351,-1.7265,-1.7247,-1.724,-1.7197,-1.7198,-1.7195,-1.7193,-1.7191,-1.715,-1.715,0,0,0,0,0,0,-1.7587,-1.7568,-1.7472,-1.7466,-1.7509,-1.7435,-1.7421,-1.7403,-1.7328,-1.7315,-1.7352,-1.7348,-1.7253,-1.7244,-1.7236,-1.7229,-1.7194,-1.7191,-1.7189,-1.7149,-1.715,-1.7151,0,0,0,0,0,0,-1.759,-1.758,-1.7476,-1.7515,-1.75,-1.7434,-1.7413,-1.7401,-1.7383,-1.7315,-1.7303,-1.7346,-1.7252,-1.7241,-1.7215,-1.7225,-1.7189,-1.7186,-1.7148,-1.7149,-1.715,-1.7219,0,0,0,0,0,0,-1.7594,-1.7581,-1.7582,-1.7516,-1.7499,-1.7459,-1.7414,-1.74,-1.7377,-1.7371,-1.7307,-1.7295,-1.725,-1.7221,-1.7212,-1.7219,-1.7184,-1.7146,-1.7148,-1.715,-1.7215,-1.7222,-1.7228,0,0,0,0,0,-1.7599,-1.7606,-1.7582,-1.7571,-1.7498,-1.746,-1.745,-1.7399,-1.7379,-1.7378,-1.7334,-1.7297,-1.7225,-1.7219,-1.7208,-1.7215,-1.7146,-1.7148,-1.715,-1.7212,-1.7221,-1.7228,0,0,0,0,0,0,-1.7675,-1.7596,-1.7569,-1.7555,-1.7515,-1.7447,-1.7444,-1.741,-1.7374,-1.737,-1.7307,-1.7293,-1.7274,-1.7242,-1.7236,-1.721,-1.7181,-1.7181,-1.7232,-1.7239,-1.7245,-1.7253,-1.7181,0,0,0,0,0,-1.7689,-1.7666,-1.7598,-1.7592,-1.7573,-1.7512,-1.7494,-1.7457,-1.7413,-1.7396,-1.735,-1.7308,-1.7275,-1.7256,-1.7222,-1.721,-1.7193,-1.7209,-1.7215,-1.7221,-1.7222,-1.721,-1.7215,-1.7157,-1.7157,-1.7157,0,0,-1.772,-1.7674,-1.7663,-1.7605,-1.757,-1.7546,-1.7499,-1.7475,-1.7456,-1.7392,-1.7365,-1.733,-1.7279,-1.7259,-1.7248,-1.7232,-1.7234,-1.7224,-1.7229,-1.7226,-1.7213,-1.7218,-1.7223,-1.7159,-1.7159,-1.7158,0,0,-1.7763,-1.7727,-1.7716,-1.7681,-1.7628,-1.7587,-1.7585,-1.7522,-1.7496,-1.7468,-1.7418,-1.7394,-1.734,-1.7305,-1.728,-1.7306,-1.727,-1.7297,-1.733,-1.732,-1.7324,-1.7328,-1.7335,-1.7339,-1.7298,-1.7298,-1.7298,0,-1.7807,-1.7769,-1.7715,-1.7694,-1.7669,-1.7609,-1.7597,-1.7565,-1.7504,-1.7488,-1.747,-1.7399,-1.7361,-1.7331,-1.7337,-1.732,-1.7313,-1.7304,-1.7328,-1.7331,-1.7334,-1.734,-1.7344,-1.7302,-1.7301,-1.7301,-1.7301,0,-1.7825,-1.78,-1.7797,-1.7739,-1.7714,-1.7698,-1.7639,-1.7619,-1.7585,-1.7545,-1.7516,-1.7467,-1.7422,-1.7412,-1.7379,-1.7377,-1.7368,-1.734,-1.7309,-1.7344,-1.7349,-1.7351,-1.7307,-1.7305,-1.7304,-1.7304,0,0,-1.7914,-1.7824,-1.7824,-1.7796,-1.7732,-1.771,-1.769,-1.7645,-1.7629,-1.7588,-1.7568,-1.7523,-1.7496,-1.7468,-1.7429,-1.742,-1.7441,-1.7393,-1.739,-1.7402,-1.7434,-1.7454,-1.7458,-1.7417,-1.7417,-1.7417,-1.7437,0,-1.7945,-1.7907,-1.7856,-1.7833,-1.7807,-1.7749,-1.7731,-1.7689,-1.7651,-1.7622,-1.758,-1.7548,-1.7516,-1.7498,-1.7487,-1.7441,-1.7446,-1.7439,-1.7396,-1.7395,-1.741,-1.7461,-1.7483,-1.7504,-1.7439,-1.7439,-1.744,0,-1.7978,-1.7939,-1.7915,-1.785,-1.7837,-1.7822,-1.7776,-1.775,-1.77,-1.7672,-1.764,-1.7598,-1.7571,-1.7544,-1.7505,-1.7501,-1.748,-1.7455,-1.7455,-1.7448,-1.7419,-1.7454,-1.751,-1.7512,-1.7442,-1.7442,-1.7442,0,-1.8042,-1.7985,-1.7961,-1.7939,-1.7864,-1.7854,-1.7823,-1.7771,-1.7747,-1.7706,-1.7689,-1.7646,-1.7622,-1.7589,-1.7535,-1.7521,-1.7502,-1.7471,-1.7477,-1.7478,-1.7475,-1.7476,-1.7527,-1.7464,-1.7464,-1.7464,-1.7464,0,-1.8082,-1.8069,-1.7989,-1.7975,-1.7957,-1.7898,-1.7881,-1.7844,-1.7799,-1.7775,-1.7722,-1.7701,-1.7632,-1.7601,-1.7559,-1.7532,-1.7522,-1.7498,-1.7487,-1.7502,-1.7505,-1.7487,-1.7484,-1.7464,-1.7464,-1.7464,-1.7464,0,-1.8152,-1.8098,-1.8069,-1.7999,-1.7982,-1.7971,-1.7911,-1.7894,-1.7853,-1.7823,-1.7812,-1.7747,-1.7708,-1.7651,-1.7596,-1.7567,-1.7546,-1.7529,-1.7563,-1.7556,-1.7565,-1.7564,-1.7605,-1.7607,-1.7545,-1.7545,-1.7546,0,-1.8181,-1.8169,-1.8098,-1.8078,-1.8048,-1.8017,-1.7991,-1.7932,-1.7907,-1.7848,-1.7837,-1.7795,-1.7757,-1.7698,-1.7644,-1.7601,-1.7581,-1.7598,-1.7574,-1.7589,-1.7579,-1.758,-1.7577,-1.7604,-1.7605,-1.7606,-1.7606,0,-1.8237,-1.821,-1.8176,-1.8131,-1.8102,-1.8064,-1.8024,-1.8011,-1.7942,-1.7916,-1.7876,-1.7847,-1.7789,-1.7747,-1.7696,-1.7661,-1.7621,-1.7614,-1.7613,-1.7628,-1.7648,-1.7635,-1.7577,-1.7614,-1.7613,-1.7612,-1.7612,-1.7612,-1.8285,-1.8271,-1.8218,-1.8181,-1.8144,-1.8107,-1.8086,-1.8042,-1.8007,-1.7956,-1.7922,-1.7884,-1.7831,-1.7758,-1.7725,-1.7692,-1.7676,-1.7675,-1.7674,-1.7675,-1.7679,-1.7654,-1.7683,-1.7683,-1.7682,-1.7682,-1.7682,0,-1.8337,-1.8299,-1.8266,-1.821,-1.818,-1.8146,-1.8099,-1.8076,-1.8042,-1.7997,-1.7961,-1.7913,-1.7871,-1.7813,-1.7767,-1.7751,-1.7732,-1.7741,-1.7741,-1.7733,-1.7697,-1.7702,-1.7757,-1.7757,-1.7757,-1.7757,-1.7757,-1.7757,-1.836,-1.8333,-1.83,-1.8253,-1.8216,-1.8177,-1.8153,-1.8117,-1.808,-1.803,-1.7995,-1.7957,-1.7906,-1.7855,-1.7814,-1.7798,-1.7782,-1.7797,-1.7775,-1.7743,-1.7736,-1.7729,-1.7733,-1.7794,-1.7794,-1.7813,-1.7813,-1.7813]}]]